Year,Month,Day,Hour,Minute,Value (Times are PST for temperature in C)
2018,06,16,07,00,14.10
2018,06,16,07,01,14.10
2018,06,16,07,02,14.10
2018,06,16,07,03,14.10
2018,06,16,07,04,14.20
2018,06,16,07,05,14.20
2018,06,16,07,06,14.20
2018,06,16,07,07,14.20
2018,06,16,07,08,14.30
2018,06,16,07,09,14.30
2018,06,16,07,10,14.30
2018,06,16,07,11,14.30
2018,06,16,07,12,14.40
2018,06,16,07,13,14.40
2018,06,16,07,14,14.40
2018,06,16,07,15,14.40
2018,06,16,07,16,14.40
2018,06,16,07,17,14.50
2018,06,16,07,18,14.50
2018,06,16,07,19,14.50
2018,06,16,07,20,14.60
2018,06,16,07,21,14.60
2018,06,16,07,22,14.70
2018,06,16,07,23,14.70
2018,06,16,07,24,14.70
2018,06,16,07,25,14.70
2018,06,16,07,26,14.70
2018,06,16,07,27,14.70
2018,06,16,07,28,14.70
2018,06,16,07,29,14.70
2018,06,16,07,30,14.70
2018,06,16,07,31,14.70
2018,06,16,07,32,14.70
2018,06,16,07,33,14.70
2018,06,16,07,49,14.90
2018,06,16,07,50,14.90
2018,06,16,07,51,14.80
2018,06,16,07,52,14.80
2018,06,16,07,53,14.80
2018,06,16,07,54,14.70
2018,06,16,07,55,14.60
2018,06,16,07,56,14.60
2018,06,16,07,57,14.50
2018,06,16,07,58,14.50
2018,06,16,07,59,14.50
2018,06,16,08,00,14.50
2018,06,16,08,01,14.50
2018,06,16,08,02,14.50
2018,06,16,08,03,14.60
2018,06,16,08,04,14.60
2018,06,16,08,05,14.70
2018,06,16,08,06,14.70
2018,06,16,08,07,14.70
2018,06,16,08,08,14.70
2018,06,16,08,09,14.70
2018,06,16,08,10,14.70
2018,06,16,08,11,14.70
2018,06,16,08,12,14.70
2018,06,16,08,13,14.70
2018,06,16,08,14,14.70
2018,06,16,08,15,14.70
2018,06,16,08,16,14.70
2018,06,16,08,32,15.50
2018,06,16,08,33,15.50
2018,06,16,08,34,15.50
2018,06,16,08,35,15.60
2018,06,16,08,36,15.60
2018,06,16,08,37,15.60
2018,06,16,08,38,15.60
2018,06,16,08,39,15.60
2018,06,16,08,40,15.60
2018,06,16,08,41,15.60
2018,06,16,08,42,15.70
2018,06,16,08,43,15.70
2018,06,16,08,44,15.70
2018,06,16,08,45,15.80
2018,06,16,08,46,15.80
2018,06,16,08,47,15.80
2018,06,16,08,48,15.80
2018,06,16,08,49,15.90
2018,06,16,08,50,15.90
2018,06,16,08,51,16.00
2018,06,16,08,52,16.10
2018,06,16,08,53,16.10
2018,06,16,08,54,16.20
2018,06,16,08,55,16.20
2018,06,16,08,56,16.20
2018,06,16,08,57,16.30
2018,06,16,08,58,16.30
2018,06,16,08,59,16.30
2018,06,16,09,00,16.30
2018,06,16,09,01,16.30
2018,06,16,09,02,16.30
2018,06,16,09,03,16.30
2018,06,16,09,04,16.30
2018,06,16,09,05,16.30
2018,06,16,09,06,16.40
2018,06,16,09,07,16.60
2018,06,16,09,08,16.70
2018,06,16,09,09,16.70
2018,06,16,09,10,16.70
2018,06,16,09,11,16.70
2018,06,16,09,12,16.80
2018,06,16,09,13,16.80
2018,06,16,09,14,16.90
2018,06,16,09,15,16.90
2018,06,16,09,16,16.90
2018,06,16,09,17,16.90
2018,06,16,09,18,16.90
2018,06,16,09,19,16.90
2018,06,16,09,20,17.00
2018,06,16,09,21,17.00
2018,06,16,09,22,16.90
2018,06,16,09,23,16.90
2018,06,16,09,24,16.90
2018,06,16,09,25,16.90
2018,06,16,09,26,16.90
2018,06,16,09,27,16.80
2018,06,16,09,28,16.80
2018,06,16,09,29,16.80
2018,06,16,09,30,16.90
2018,06,16,09,31,16.90
2018,06,16,09,32,16.90
2018,06,16,09,33,17.00
2018,06,16,09,34,17.00
2018,06,16,09,35,17.10
2018,06,16,09,36,17.10
2018,06,16,09,37,17.10
2018,06,16,09,38,17.10
2018,06,16,09,39,17.10
2018,06,16,09,40,17.10
2018,06,16,09,41,17.20
2018,06,16,09,42,17.20
2018,06,16,09,43,17.30
2018,06,16,09,44,17.30
2018,06,16,09,45,17.30
2018,06,16,09,46,17.30
2018,06,16,09,47,17.30
2018,06,16,09,48,17.30
2018,06,16,09,49,17.30
2018,06,16,09,50,17.20
2018,06,16,09,51,17.20
2018,06,16,09,52,17.20
2018,06,16,09,53,17.30
2018,06,16,09,54,17.30
2018,06,16,09,55,17.30
2018,06,16,09,56,17.30
2018,06,16,09,57,17.30
2018,06,16,09,58,17.30
2018,06,16,09,59,17.30
2018,06,16,10,00,17.30
2018,06,16,10,01,17.20
2018,06,16,10,02,17.20
2018,06,16,10,03,17.20
2018,06,16,10,04,17.30
2018,06,16,10,05,17.30
2018,06,16,10,06,17.40
2018,06,16,10,07,17.40
2018,06,16,10,08,17.50
2018,06,16,10,09,17.50
2018,06,16,10,10,17.50
2018,06,16,10,11,17.50
2018,06,16,10,12,17.60
2018,06,16,10,13,17.60
2018,06,16,10,14,17.70
2018,06,16,10,15,17.70
2018,06,16,10,16,17.70
2018,06,16,10,17,17.80
2018,06,16,10,18,17.80
2018,06,16,10,19,17.90
2018,06,16,10,20,17.90
2018,06,16,10,21,17.80
2018,06,16,10,22,17.80
2018,06,16,10,23,17.90
2018,06,16,10,24,18.00
2018,06,16,10,25,18.10
2018,06,16,10,26,18.10
2018,06,16,10,27,18.20
2018,06,16,10,28,18.30
2018,06,16,10,29,18.30
2018,06,16,10,30,18.40
2018,06,16,10,31,18.40
2018,06,16,10,32,18.40
2018,06,16,10,33,18.40
2018,06,16,10,34,18.40
2018,06,16,10,35,18.40
2018,06,16,10,36,18.40
2018,06,16,10,37,18.50
2018,06,16,10,38,18.50
2018,06,16,10,39,18.50
2018,06,16,10,40,18.50
2018,06,16,10,41,18.50
2018,06,16,10,42,18.50
2018,06,16,10,43,18.50
2018,06,16,10,44,18.40
2018,06,16,10,45,18.40
2018,06,16,10,46,18.30
2018,06,16,10,47,18.30
2018,06,16,10,48,18.20
2018,06,16,10,49,18.20
2018,06,16,10,50,18.20
2018,06,16,10,51,18.20
2018,06,16,10,52,18.20
2018,06,16,10,53,18.20
2018,06,16,10,54,18.10
2018,06,16,10,55,18.10
2018,06,16,10,56,18.00
2018,06,16,10,57,17.90
2018,06,16,10,58,17.80
2018,06,16,10,59,17.80
2018,06,16,11,00,17.90
2018,06,16,11,01,17.90
2018,06,16,11,02,18.00
2018,06,16,11,03,18.10
2018,06,16,11,04,18.10
2018,06,16,11,05,18.10
2018,06,16,11,06,18.10
2018,06,16,11,07,18.20
2018,06,16,11,08,18.30
2018,06,16,11,09,18.30
2018,06,16,11,10,18.30
2018,06,16,11,11,18.30
2018,06,16,11,12,18.30
2018,06,16,11,13,18.30
2018,06,16,11,14,18.30
2018,06,16,11,15,18.30
2018,06,16,11,16,18.30
2018,06,16,11,17,18.30
2018,06,16,11,18,18.30
2018,06,16,11,19,18.20
2018,06,16,11,20,18.20
2018,06,16,11,21,18.10
2018,06,16,11,22,18.10
2018,06,16,11,23,18.10
2018,06,16,11,24,18.10
2018,06,16,11,25,18.10
2018,06,16,11,26,18.10
2018,06,16,11,27,18.20
2018,06,16,11,28,18.20
2018,06,16,11,29,18.10
2018,06,16,11,30,18.10
2018,06,16,11,31,18.10
2018,06,16,11,32,18.10
2018,06,16,11,33,18.20
2018,06,16,11,34,18.20
2018,06,16,11,35,18.20
2018,06,16,11,36,18.20
2018,06,16,11,37,18.10
2018,06,16,11,38,18.10
2018,06,16,11,39,18.10
2018,06,16,11,40,18.00
2018,06,16,11,41,17.90
2018,06,16,11,42,17.80
2018,06,16,11,43,17.70
2018,06,16,11,44,17.50
2018,06,16,11,45,17.50
2018,06,16,11,46,17.40
2018,06,16,11,47,17.40
2018,06,16,11,48,17.30
2018,06,16,11,49,17.20
2018,06,16,11,50,17.20
2018,06,16,11,51,17.10
2018,06,16,11,52,17.00
2018,06,16,11,53,16.90
2018,06,16,11,54,16.80
2018,06,16,11,55,16.80
2018,06,16,11,56,16.70
2018,06,16,11,57,16.60
2018,06,16,11,58,16.60
2018,06,16,11,59,16.60
2018,06,16,12,00,16.70
2018,06,16,12,01,16.70
2018,06,16,12,02,16.70
2018,06,16,12,03,16.80
2018,06,16,12,04,16.90
2018,06,16,12,05,17.00
2018,06,16,12,06,17.00
2018,06,16,12,07,17.10
2018,06,16,12,08,17.20
2018,06,16,12,09,17.20
2018,06,16,12,10,17.30
2018,06,16,12,11,17.40
2018,06,16,12,12,17.60
2018,06,16,12,13,17.80
2018,06,16,12,14,17.90
2018,06,16,12,15,18.10
2018,06,16,12,16,18.20
2018,06,16,12,17,18.30
2018,06,16,12,18,18.30
2018,06,16,12,19,18.40
2018,06,16,12,20,18.40
2018,06,16,12,21,18.50
2018,06,16,12,22,18.50
2018,06,16,12,23,18.60
2018,06,16,12,24,18.60
2018,06,16,12,25,18.50
2018,06,16,12,26,18.40
2018,06,16,12,27,18.20
2018,06,16,12,28,18.10
2018,06,16,12,29,18.10
2018,06,16,12,30,18.10
2018,06,16,12,31,18.10
2018,06,16,12,32,18.10
2018,06,16,12,33,18.20
2018,06,16,12,34,18.10
2018,06,16,12,35,18.10
2018,06,16,12,36,18.00
2018,06,16,12,37,17.90
2018,06,16,12,38,18.00
2018,06,16,12,39,18.00
2018,06,16,12,40,18.10
2018,06,16,12,41,18.20
2018,06,16,12,42,18.30
2018,06,16,12,43,18.40
2018,06,16,12,44,18.50
2018,06,16,12,45,18.60
2018,06,16,12,46,18.60
2018,06,16,12,47,18.50
2018,06,16,12,48,18.40
2018,06,16,12,49,18.30
2018,06,16,12,50,18.40
2018,06,16,12,51,18.40
2018,06,16,12,52,18.40
2018,06,16,12,53,18.50
2018,06,16,12,54,18.50
2018,06,16,12,55,18.40
2018,06,16,12,56,18.30
2018,06,16,12,57,18.30
2018,06,16,12,58,18.40
2018,06,16,12,59,18.30
2018,06,16,13,00,18.40
2018,06,16,13,01,18.40
2018,06,16,13,02,18.40
2018,06,16,13,03,18.40
2018,06,16,13,04,18.40
2018,06,16,13,05,18.40
2018,06,16,13,06,18.50
2018,06,16,13,07,18.50
2018,06,16,13,08,18.50
2018,06,16,13,09,18.60
2018,06,16,13,10,18.60
2018,06,16,13,11,18.60
2018,06,16,13,12,18.60
2018,06,16,13,13,18.60
2018,06,16,13,14,18.70
2018,06,16,13,15,18.80
2018,06,16,13,16,18.90
2018,06,16,13,17,19.10
2018,06,16,13,18,19.20
2018,06,16,13,19,19.30
2018,06,16,13,20,19.30
2018,06,16,13,21,19.40
2018,06,16,13,22,19.50
2018,06,16,13,23,19.60
2018,06,16,13,24,19.70
2018,06,16,13,25,19.80
2018,06,16,13,26,19.80
2018,06,16,13,27,19.80
2018,06,16,13,28,19.80
2018,06,16,13,29,19.80
2018,06,16,13,30,19.70
2018,06,16,13,31,19.60
2018,06,16,13,32,19.40
2018,06,16,13,33,19.20
2018,06,16,13,34,19.10
2018,06,16,13,35,19.00
2018,06,16,13,36,18.90
2018,06,16,13,37,18.90
2018,06,16,13,38,19.00
2018,06,16,13,39,19.00
2018,06,16,13,40,19.10
2018,06,16,13,41,19.10
2018,06,16,13,42,19.20
2018,06,16,13,43,19.30
2018,06,16,13,44,19.30
2018,06,16,13,45,19.30
2018,06,16,13,46,19.40
2018,06,16,13,47,19.40
2018,06,16,13,48,19.50
2018,06,16,13,49,19.50
2018,06,16,13,50,19.50
2018,06,16,13,51,19.50
2018,06,16,13,52,19.60
2018,06,16,13,53,19.60
2018,06,16,13,54,19.60
2018,06,16,13,55,19.60
2018,06,16,13,56,19.70
2018,06,16,13,57,19.70
2018,06,16,13,58,19.80
2018,06,16,13,59,19.80
2018,06,16,14,00,19.90
2018,06,16,14,01,20.00
2018,06,16,14,02,20.10
2018,06,16,14,03,20.20
2018,06,16,14,04,20.30
2018,06,16,14,05,20.30
2018,06,16,14,06,20.30
2018,06,16,14,07,20.30
2018,06,16,14,08,20.30
2018,06,16,14,09,20.20
2018,06,16,14,10,20.10
2018,06,16,14,11,19.90
2018,06,16,14,12,19.80
2018,06,16,14,13,19.80
2018,06,16,14,14,19.80
2018,06,16,14,15,19.90
2018,06,16,14,16,20.00
2018,06,16,14,17,20.20
2018,06,16,14,18,20.30
2018,06,16,14,19,20.30
2018,06,16,14,20,20.30
2018,06,16,14,21,20.30
2018,06,16,14,22,20.40
2018,06,16,14,23,20.50
2018,06,16,14,24,20.60
2018,06,16,14,25,20.60
2018,06,16,14,26,20.60
2018,06,16,14,27,20.70
2018,06,16,14,28,20.70
2018,06,16,14,29,20.80
2018,06,16,14,30,20.90
2018,06,16,14,31,20.90
2018,06,16,14,32,20.90
2018,06,16,14,33,20.90
2018,06,16,14,34,20.90
2018,06,16,14,35,20.90
2018,06,16,14,36,21.00
2018,06,16,14,37,20.90
2018,06,16,14,38,20.90
2018,06,16,14,39,20.90
2018,06,16,14,40,21.00
2018,06,16,14,41,21.00
2018,06,16,14,42,21.10
2018,06,16,14,43,21.10
2018,06,16,14,44,21.20
2018,06,16,14,45,21.30
2018,06,16,14,46,21.30
2018,06,16,14,47,21.40
2018,06,16,14,48,21.50
2018,06,16,14,49,21.60
2018,06,16,14,50,21.50
2018,06,16,14,51,21.40
2018,06,16,14,52,21.40
2018,06,16,14,53,21.40
2018,06,16,14,54,21.30
2018,06,16,14,55,21.30
2018,06,16,14,56,21.20
2018,06,16,14,57,21.20
2018,06,16,14,58,21.10
2018,06,16,14,59,21.10
2018,06,16,15,00,21.10
2018,06,16,15,01,21.20
2018,06,16,15,02,21.20
2018,06,16,15,03,21.30
2018,06,16,15,04,21.40
2018,06,16,15,05,21.40
2018,06,16,15,06,21.30
2018,06,16,15,07,21.20
2018,06,16,15,08,21.10
2018,06,16,15,09,21.00
2018,06,16,15,10,21.00
2018,06,16,15,11,21.00
2018,06,16,15,12,21.20
2018,06,16,15,13,21.30
2018,06,16,15,14,21.40
2018,06,16,15,15,21.60
2018,06,16,15,16,21.70
2018,06,16,15,17,21.70
2018,06,16,15,18,21.70
2018,06,16,15,19,21.60
2018,06,16,15,20,21.50
2018,06,16,15,21,21.50
2018,06,16,15,22,21.50
2018,06,16,15,23,21.50
2018,06,16,15,24,21.50
2018,06,16,15,25,21.60
2018,06,16,15,26,21.70
2018,06,16,15,27,21.70
2018,06,16,15,28,21.70
2018,06,16,15,29,21.70
2018,06,16,15,30,21.70
2018,06,16,15,31,21.70
2018,06,16,15,32,21.70
2018,06,16,15,33,21.70
2018,06,16,15,34,21.70
2018,06,16,15,35,21.80
2018,06,16,15,36,21.80
2018,06,16,15,37,21.90
2018,06,16,15,38,22.00
2018,06,16,15,39,22.00
2018,06,16,15,40,22.10
2018,06,16,15,41,22.10
2018,06,16,15,42,22.10
2018,06,16,15,43,22.00
2018,06,16,15,44,22.00
2018,06,16,15,45,22.10
2018,06,16,15,46,22.10
2018,06,16,15,47,22.10
2018,06,16,15,48,22.10
2018,06,16,15,49,22.10
2018,06,16,15,50,22.10
2018,06,16,15,51,22.10
2018,06,16,15,52,22.20
2018,06,16,15,53,22.20
2018,06,16,15,54,22.30
2018,06,16,15,55,22.30
2018,06,16,15,56,22.30
2018,06,16,15,57,22.30
2018,06,16,15,58,22.30
2018,06,16,15,59,22.20
2018,06,16,16,00,22.10
2018,06,16,16,01,22.10
2018,06,16,16,02,22.10
2018,06,16,16,03,22.10
2018,06,16,16,04,22.00
2018,06,16,16,05,22.00
2018,06,16,16,06,22.10
2018,06,16,16,07,22.00
2018,06,16,16,08,21.90
2018,06,16,16,09,21.90
2018,06,16,16,10,21.90
2018,06,16,16,11,21.80
2018,06,16,16,12,21.80
2018,06,16,16,13,21.80
2018,06,16,16,14,21.80
2018,06,16,16,15,21.80
2018,06,16,16,16,21.90
2018,06,16,16,17,22.00
2018,06,16,16,18,22.10
2018,06,16,16,19,22.20
2018,06,16,16,20,22.30
2018,06,16,16,21,22.20
2018,06,16,16,22,22.10
2018,06,16,16,23,22.10
2018,06,16,16,24,22.10
2018,06,16,16,25,22.10
2018,06,16,16,26,22.10
2018,06,16,16,27,22.10
2018,06,16,16,28,22.20
2018,06,16,16,29,22.30
2018,06,16,16,30,22.40
2018,06,16,16,31,22.50
2018,06,16,16,32,22.50
2018,06,16,16,33,22.50
2018,06,16,16,34,22.50
2018,06,16,16,35,22.60
2018,06,16,16,36,22.70
2018,06,16,16,37,22.60
2018,06,16,16,38,22.50
2018,06,16,16,39,22.30
2018,06,16,16,40,22.30
2018,06,16,16,41,22.30
2018,06,16,16,42,22.30
2018,06,16,16,43,22.30
2018,06,16,16,44,22.30
2018,06,16,16,45,22.30
2018,06,16,16,46,22.20
2018,06,16,16,47,22.20
2018,06,16,16,48,22.30
2018,06,16,16,49,22.30
2018,06,16,16,50,22.30
2018,06,16,16,51,22.30
2018,06,16,16,52,22.30
2018,06,16,16,53,22.40
2018,06,16,16,54,22.50
2018,06,16,16,55,22.60
2018,06,16,16,56,22.60
2018,06,16,16,57,22.60
2018,06,16,16,58,22.60
2018,06,16,16,59,22.50
2018,06,16,17,00,22.40
2018,06,16,17,01,22.40
2018,06,16,17,02,22.40
2018,06,16,17,03,22.30
2018,06,16,17,04,22.30
2018,06,16,17,05,22.30
2018,06,16,17,06,22.30
2018,06,16,17,07,22.30
2018,06,16,17,08,22.20
2018,06,16,17,09,22.20
2018,06,16,17,10,22.20
2018,06,16,17,11,22.20
2018,06,16,17,12,22.20
2018,06,16,17,13,22.20
2018,06,16,17,14,22.20
2018,06,16,17,15,22.30
2018,06,16,17,16,22.30
2018,06,16,17,17,22.40
2018,06,16,17,18,22.50
2018,06,16,17,19,22.60
2018,06,16,17,20,22.60
2018,06,16,17,21,22.50
2018,06,16,17,22,22.30
2018,06,16,17,23,22.30
2018,06,16,17,24,22.30
2018,06,16,17,25,22.20
2018,06,16,17,26,22.20
2018,06,16,17,27,22.10
2018,06,16,17,28,22.10
2018,06,16,17,29,22.10
2018,06,16,17,30,22.10
2018,06,16,17,31,22.10
2018,06,16,17,32,22.10
2018,06,16,17,33,22.10
2018,06,16,17,34,22.10
2018,06,16,17,35,22.10
2018,06,16,17,36,22.00
2018,06,16,17,37,22.10
2018,06,16,17,38,22.10
2018,06,16,17,39,22.10
2018,06,16,17,40,22.10
2018,06,16,17,41,22.10
2018,06,16,17,42,22.10
2018,06,16,17,43,22.20
2018,06,16,17,44,22.30
2018,06,16,17,45,22.40
2018,06,16,17,46,22.50
2018,06,16,17,47,22.50
2018,06,16,17,48,22.60
2018,06,16,17,49,22.70
2018,06,16,17,50,22.80
2018,06,16,17,51,22.80
2018,06,16,17,52,22.80
2018,06,16,17,53,22.80
2018,06,16,17,54,22.80
2018,06,16,17,55,22.80
2018,06,16,17,56,22.80
2018,06,16,17,57,22.80
2018,06,16,17,58,22.80
2018,06,16,17,59,22.80
2018,06,16,18,00,22.90
2018,06,16,18,01,22.90
2018,06,16,18,02,22.90
2018,06,16,18,03,22.90
2018,06,16,18,04,23.00
2018,06,16,18,05,23.00
2018,06,16,18,06,23.00
2018,06,16,18,07,23.10
2018,06,16,18,08,23.10
2018,06,16,18,09,23.20
2018,06,16,18,10,23.20
2018,06,16,18,11,23.20
2018,06,16,18,12,23.30
2018,06,16,18,13,23.30
2018,06,16,18,14,23.40
2018,06,16,18,15,23.40
2018,06,16,18,16,23.50
2018,06,16,18,17,23.50
2018,06,16,18,18,23.50
2018,06,16,18,19,23.60
2018,06,16,18,20,23.60
2018,06,16,18,21,23.60
2018,06,16,18,22,23.60
2018,06,16,18,23,23.50
2018,06,16,18,24,23.40
2018,06,16,18,25,23.40
2018,06,16,18,26,23.50
2018,06,16,18,27,23.50
2018,06,16,18,28,23.50
2018,06,16,18,29,23.50
2018,06,16,18,30,23.40
2018,06,16,18,31,23.40
2018,06,16,18,32,23.30
2018,06,16,18,33,23.30
2018,06,16,18,34,23.30
2018,06,16,18,35,23.30
2018,06,16,18,36,23.30
2018,06,16,18,37,23.30
2018,06,16,18,38,23.30
2018,06,16,18,39,23.30
2018,06,16,18,40,23.30
2018,06,16,18,41,23.20
2018,06,16,18,42,23.20
2018,06,16,18,43,23.20
2018,06,16,18,44,23.20
2018,06,16,18,45,23.20
2018,06,16,18,46,23.20
2018,06,16,18,47,23.20
2018,06,16,18,48,23.20
2018,06,16,18,49,23.20
2018,06,16,18,50,23.20
2018,06,16,18,51,23.20
2018,06,16,18,52,23.30
2018,06,16,18,53,23.30
2018,06,16,18,54,23.40
2018,06,16,18,55,23.50
2018,06,16,18,56,23.50
2018,06,16,18,57,23.60
2018,06,16,18,58,23.50
2018,06,16,18,59,23.50
2018,06,16,19,00,23.60
2018,06,16,19,01,23.60
2018,06,16,19,02,23.60
2018,06,16,19,03,23.50
2018,06,16,19,04,23.50
2018,06,16,19,05,23.50
2018,06,16,19,06,23.40
2018,06,16,19,07,23.40
2018,06,16,19,08,23.30
2018,06,16,19,09,23.20
2018,06,16,19,10,23.20
2018,06,16,19,11,23.20
2018,06,16,19,12,23.10
2018,06,16,19,13,23.10
2018,06,16,19,14,23.10
2018,06,16,19,15,23.10
2018,06,16,19,16,23.10
2018,06,16,19,17,23.10
2018,06,16,19,18,23.20
2018,06,16,19,19,23.20
2018,06,16,19,20,23.20
2018,06,16,19,21,23.20
2018,06,16,19,22,23.20
2018,06,16,19,23,23.10
2018,06,16,19,24,23.10
2018,06,16,19,25,23.10
2018,06,16,19,26,23.10
2018,06,16,19,27,23.10
2018,06,16,19,28,23.00
2018,06,16,19,29,23.00
2018,06,16,19,30,23.00
2018,06,16,19,31,22.90
2018,06,16,19,32,22.90
2018,06,16,19,33,23.00
2018,06,16,19,34,23.00
2018,06,16,19,35,22.90
2018,06,16,19,36,22.90
2018,06,16,19,37,22.90
2018,06,16,19,38,22.90
2018,06,16,19,39,22.90
2018,06,16,19,40,22.80
2018,06,16,19,41,22.80
2018,06,16,19,42,22.70
2018,06,16,19,43,22.70
2018,06,16,19,44,22.50
2018,06,16,19,45,22.30
2018,06,16,19,46,22.20
2018,06,16,19,47,22.10
2018,06,16,19,48,22.10
2018,06,16,19,49,22.00
2018,06,16,19,50,22.00
2018,06,16,19,51,22.10
2018,06,16,19,52,22.10
2018,06,16,19,53,22.10
2018,06,16,19,54,22.10
2018,06,16,19,55,22.20
2018,06,16,19,56,22.20
2018,06,16,19,57,22.20
2018,06,16,19,58,22.20
2018,06,16,19,59,22.20
2018,06,16,20,00,22.30
2018,06,16,20,01,22.30
2018,06,16,20,02,22.30
2018,06,16,20,03,22.30
2018,06,16,20,04,22.30
2018,06,16,20,05,22.30
2018,06,16,20,06,22.40
2018,06,16,20,07,22.30
2018,06,16,20,08,22.40
2018,06,16,20,09,22.30
2018,06,16,20,10,22.30
2018,06,16,20,11,22.30
2018,06,16,20,12,22.30
2018,06,16,20,13,22.30
2018,06,16,20,14,22.20
2018,06,16,20,15,22.20
2018,06,16,20,16,22.20
2018,06,16,20,17,22.20
2018,06,16,20,18,22.20
2018,06,16,20,19,22.20
2018,06,16,20,20,22.20
2018,06,16,20,21,22.20
2018,06,16,20,22,22.20
2018,06,16,20,23,22.20
2018,06,16,20,24,22.20
2018,06,16,20,25,22.20
2018,06,16,20,26,22.20
2018,06,16,20,27,22.20
2018,06,16,20,28,22.20
2018,06,16,20,29,22.20
2018,06,16,20,30,22.20
2018,06,16,20,31,22.20
2018,06,16,20,32,22.20
2018,06,16,20,33,22.20
2018,06,16,20,34,22.20
2018,06,16,20,35,22.20
2018,06,16,20,36,22.20
2018,06,16,20,37,22.20
2018,06,16,20,38,22.20
2018,06,16,20,39,22.20
2018,06,16,20,40,22.20
2018,06,16,20,41,22.20
2018,06,16,20,42,22.20
2018,06,16,20,43,22.20
2018,06,16,20,44,22.20
2018,06,16,20,45,22.10
2018,06,16,20,46,22.10
2018,06,16,20,47,22.10
2018,06,16,20,48,22.10
2018,06,16,20,49,22.10
2018,06,16,20,50,22.10
2018,06,16,20,51,22.10
2018,06,16,20,52,22.00
2018,06,16,20,53,22.00
2018,06,16,20,54,22.00
2018,06,16,20,55,21.90
2018,06,16,20,56,21.90
2018,06,16,20,57,21.80
2018,06,16,20,58,21.80
2018,06,16,20,59,21.80
2018,06,16,21,00,21.80
2018,06,16,21,01,21.70
2018,06,16,21,02,21.70
2018,06,16,21,03,21.70
2018,06,16,21,04,21.70
2018,06,16,21,05,21.60
2018,06,16,21,06,21.60
2018,06,16,21,07,21.60
2018,06,16,21,08,21.50
2018,06,16,21,09,21.50
2018,06,16,21,10,21.50
2018,06,16,21,11,21.40
2018,06,16,21,12,21.40
2018,06,16,21,13,21.30
2018,06,16,21,14,21.30
2018,06,16,21,15,21.20
2018,06,16,21,16,21.20
2018,06,16,21,17,21.20
2018,06,16,21,18,21.10
2018,06,16,21,19,21.10
2018,06,16,21,20,21.00
2018,06,16,21,21,20.90
2018,06,16,21,22,20.80
2018,06,16,21,23,20.70
2018,06,16,21,24,20.50
2018,06,16,21,25,20.30
2018,06,16,21,26,20.20
2018,06,16,21,27,20.00
2018,06,16,21,28,19.90
2018,06,16,21,29,19.80
2018,06,16,21,30,19.70
2018,06,16,21,31,19.70
2018,06,16,21,32,19.60
2018,06,16,21,33,19.60
2018,06,16,21,34,19.50
2018,06,16,21,35,19.50
2018,06,16,21,36,19.50
2018,06,16,21,37,19.40
2018,06,16,21,38,19.40
2018,06,16,21,39,19.40
2018,06,16,21,40,19.40
2018,06,16,21,41,19.40
2018,06,16,21,42,19.40
2018,06,16,21,43,19.40
2018,06,16,21,44,19.40
2018,06,16,21,45,19.40
2018,06,16,21,46,19.40
2018,06,16,21,47,19.40
2018,06,16,21,48,19.40
2018,06,16,21,49,19.40
2018,06,16,21,50,19.40
2018,06,16,21,51,19.40
2018,06,16,21,52,19.30
2018,06,16,21,53,19.30
2018,06,16,21,54,19.30
2018,06,16,21,55,19.20
2018,06,16,21,56,19.20
2018,06,16,21,57,19.20
2018,06,16,21,58,19.20
2018,06,16,21,59,19.10
2018,06,16,22,00,19.10
2018,06,16,22,01,19.10
2018,06,16,22,02,19.10
2018,06,16,22,03,19.00
2018,06,16,22,04,19.00
2018,06,16,22,05,19.00
2018,06,16,22,06,19.00
2018,06,16,22,07,19.00
2018,06,16,22,08,18.90
2018,06,16,22,09,18.90
2018,06,16,22,10,18.90
2018,06,16,22,11,18.80
2018,06,16,22,12,18.80
2018,06,16,22,13,18.80
2018,06,16,22,14,18.80
2018,06,16,22,15,18.80
2018,06,16,22,16,18.80
2018,06,16,22,17,18.80
2018,06,16,22,18,18.80
2018,06,16,22,19,18.80
2018,06,16,22,20,18.80
2018,06,16,22,21,18.80
2018,06,16,22,22,18.70
2018,06,16,22,23,18.70
2018,06,16,22,24,18.70
2018,06,16,22,25,18.70
2018,06,16,22,26,18.70
2018,06,16,22,27,18.70
2018,06,16,22,28,18.70
2018,06,16,22,29,18.70
2018,06,16,22,30,18.70
2018,06,16,22,31,18.70
2018,06,16,22,32,18.70
2018,06,16,22,33,18.70
2018,06,16,22,34,18.70
2018,06,16,22,35,18.70
2018,06,16,22,36,18.70
2018,06,16,22,37,18.80
2018,06,16,22,38,18.80
2018,06,16,22,39,18.80
2018,06,16,22,40,18.80
2018,06,16,22,41,18.70
2018,06,16,22,42,18.70
2018,06,16,22,43,18.70
2018,06,16,22,44,18.70
2018,06,16,22,45,18.70
2018,06,16,22,46,18.70
2018,06,16,22,47,18.60
2018,06,16,22,48,18.60
2018,06,16,22,49,18.60
2018,06,16,22,50,18.60
2018,06,16,22,51,18.60
2018,06,16,22,52,18.60
2018,06,16,22,53,18.60
2018,06,16,22,54,18.60
2018,06,16,22,55,18.60
2018,06,16,22,56,18.60
2018,06,16,22,57,18.60
